Benton Harbor, MI

11:35 PM EST on January 19, 2018 (GMT -0500)
Southwest Michigan Regional

Weather History for KBEH - November, 2013

Change the Weather History Date:

Thursday, November 21, 2013

  Actual Average Record
Temperature  
Mean Temperature 44 °F -  
Max Temperature 51 °F 45 °F 65 °F (1990)
Min Temperature 37 °F 30 °F 11 °F (1964)
Degree Days  
Heating Degree Days 21    
Moisture  
Dew Point 42 °F    
Average Humidity 90    
Maximum Humidity 100    
Minimum Humidity 74    
Precipitation  
Precipitation 0.16 in - - ()
Sea Level Pressure  
Sea Level Pressure 30.18 in    
Wind  
Wind Speed 6 mph (SSE)    
Max Wind Speed 12 mph    
Max Gust Speed 20 mph    
Visibility 5 miles    
Events Rain    
Averages and records for this station are not official NWS values.
T = Trace of Precipitation, MM = Missing Value Source: NWS Daily Summary

Daily Weather History Graph

Daily Weather History Graph

Search for Another Location

Airport or City:

Trip Planner

Search our weather history database for the weather conditions in past years. The results will help you decide how hot, cold, wet, or windy it might be!

Date:

Astronomy

Nov. 21, 2013 Rise Set
Actual Time 7:43 AM EST 5:19 PM EST
Civil Twilight 7:12 AM EST 5:50 PM EST
Nautical Twilight 6:38 AM EST 6:24 PM EST
Astronomical Twilight 6:05 AM EST 6:57 PM EST
Moon 8:56 PM EST (11/21) 10:49 AM EST (11/21)
Length of Visible Light 10h 37m
Length of Day
9h 35m
Waning Gibbous, 85% of the Moon is Illuminated
Nov 21
Waning Gibbous
Nov 25
Last Quarter
Dec 2
New
Dec 9
First Quarter
Dec 17
Full

Hourly Weather History & Observations

Time (EST) Temp. Windchill Dew Point Humidity Pressure Visibility Wind Dir Wind Speed Gust Speed Precip Events Conditions
12:53 AM 37.9 °F 35.5 °F 37.0 °F 97% 30.21 in 5.0 mi ESE 3.5 mph - 0.00 in   Overcast
1:53 AM 37.9 °F 33.5 °F 37.0 °F 97% 30.20 in 4.0 mi East 5.8 mph - N/A   Overcast
2:53 AM 39.9 °F 35.1 °F 37.0 °F 89% 30.19 in 6.0 mi ESE 6.9 mph - N/A   Overcast
3:53 AM 39.9 °F 35.1 °F 37.0 °F 89% 30.17 in 7.0 mi ESE 6.9 mph - N/A   Overcast
4:53 AM 42.1 °F 36.6 °F 37.0 °F 82% 30.16 in 9.0 mi SE 9.2 mph - N/A   Overcast
5:53 AM 43.0 °F 38.2 °F 37.0 °F 80% 30.15 in 9.0 mi SE 8.1 mph - N/A   Overcast
6:53 AM 43.0 °F 38.8 °F 37.0 °F 80% 30.16 in 10.0 mi SSE 6.9 mph - N/A   Overcast
7:53 AM 44.1 °F 40.8 °F 37.9 °F 79% 30.17 in 10.0 mi SSE 5.8 mph - N/A   Overcast
8:53 AM 45.0 °F 41.2 °F 37.9 °F 76% 30.19 in 10.0 mi SSE 6.9 mph - N/A   Overcast
9:53 AM 46.9 °F - 39.0 °F 74% 30.19 in 10.0 mi South 5.8 mph - N/A   Overcast
10:53 AM 48.9 °F - 41.0 °F 74% 30.20 in 10.0 mi South 10.4 mph - 0.01 in   Overcast
11:53 AM 50.0 °F - 42.1 °F 74% 30.19 in 10.0 mi South 11.5 mph 19.6 mph N/A   Overcast
12:53 PM 51.1 °F - 43.0 °F 74% 30.17 in 9.0 mi South 9.2 mph - N/A   Mostly Cloudy
1:53 PM 50.0 °F - 43.0 °F 77% 30.16 in 8.0 mi SSW 9.2 mph - N/A   Mostly Cloudy
2:53 PM 48.9 °F - 42.1 °F 77% 30.17 in 8.0 mi SSW 9.2 mph - N/A   Overcast
3:53 PM 48.0 °F - 43.0 °F 83% 30.17 in 7.0 mi SSW 6.9 mph - N/A   Overcast
4:53 PM 46.9 °F - 44.1 °F 90% 30.16 in 5.0 mi SSE 6.9 mph - N/A   Overcast
5:00 PM 46.4 °F 43.5 °F 44.6 °F 93% 30.15 in 5.0 mi South 5.8 mph - N/A   Overcast
5:53 PM 46.0 °F 43.9 °F 45.0 °F 96% 30.18 in 3.0 mi South 4.6 mph - 0.01 in Rain Light Rain
6:15 PM 46.4 °F 45.2 °F 44.6 °F 93% 30.17 in 2.5 mi South 3.5 mph - 0.01 in Rain Light Rain
6:36 PM 44.6 °F 42.2 °F 44.6 °F 100% 30.17 in 2.5 mi SSE 4.6 mph - 0.03 in Rain Light Rain
6:53 PM 45.0 °F 42.6 °F 45.0 °F 100% 30.19 in 2.5 mi SSE 4.6 mph - 0.04 in Rain Light Rain
7:15 PM 44.6 °F 43.1 °F 44.6 °F 100% 30.17 in 2.5 mi South 3.5 mph - 0.01 in Rain Light Rain
7:29 PM 44.6 °F 43.1 °F 44.6 °F 100% 30.16 in 2.0 mi SSE 3.5 mph - 0.03 in Rain Light Rain
7:48 PM 44.6 °F - 44.6 °F 100% 30.16 in 2.5 mi Calm Calm - 0.03 in Rain Light Rain
7:53 PM 45.0 °F - 45.0 °F 100% 30.17 in 2.5 mi Calm Calm - 0.04 in Rain Light Rain
8:09 PM 44.6 °F - 44.6 °F 100% 30.17 in 2.0 mi Calm Calm - 0.00 in Rain Light Rain
8:53 PM 45.0 °F - 45.0 °F 100% 30.18 in 1.8 mi Calm Calm - 0.01 in Rain Light Rain
9:53 PM 45.0 °F - 45.0 °F 100% 30.19 in 1.8 mi Calm Calm - 0.04 in Rain Light Rain
10:53 PM 45.0 °F - 45.0 °F 100% 30.18 in 1.8 mi Calm Calm - 0.01 in   Overcast
11:02 PM 44.6 °F - 44.6 °F 100% 30.17 in 2.0 mi Calm Calm - N/A   Overcast
11:53 PM 46.0 °F 43.9 °F 46.0 °F 100% 30.18 in 3.0 mi West 4.6 mph - N/A   Overcast